Home > Time Zones > World Clock > Weather > Japan > Kyoto > Past weeks

Flag Weather past 2 weeks in Kyoto, Japan

Now
51 °F

Cool.


Feels Like: 50 °F
Forecast: 36 / 67 °F
Wind: 3 mph from Northeast

Location: Osaka

Current Time: Nov 22, 2014 at 1:55:10 AM

Latest Report: Nov 22, 2014 at 1:00 AM


Visibility: N/A

Pressure: 30.30 "Hg

Humidity: 71%

Dew point: 41 °F

Location of KyotoLocation

Historic Weather in Kyoto — Graph

°F

Kyoto temperature yesterday

Maximum temperature yesterday: 63 °F (at 2:00 PM)
Minimum temperature yesterday: 44 °F (at 7:00 AM)
Average temperature yesterday: 53 °F

Past Weeks' High & Low Weather Summary

 TemperatureHumidityPressure
High68 °F (Nov 10, 1:00 PM)97% (Nov 9, 9:00 PM)30.37 "Hg (Nov 9, 9:00 PM)
Low44 °F (Nov 21, 7:00 AM)27% (Nov 21, 2:00 PM)29.77 "Hg (Nov 12, 2:00 PM)
Average55 °F60%30.16 "Hg
* Reported Midnight between Nov 6 and Nov 7 — Midnight between Nov 21 and Nov 22, Kyoto, Weather by CustomWeather, © 2014

Note: Actual official high and low records may vary slightly from our data, if they occured in-between our weather recording intervals... More about our weather records

Advertising

Kyoto weather history for previous 24 hours

 ConditionsComfort  
Time TempWeatherWind HumidityBarometerVisibility
12:00 AM
Nov 22
50 °FCool.3 mph71%30.31 "HgN/A
11:00 PM
Nov 21
52 °FCool.3 mph65%30.30 "HgN/A
10:00 PM53 °FCool.3 mph61%30.30 "HgN/A
9:00 PM54 °FOvercast.3 mph56%30.28 "Hg19 mi
8:00 PM55 °FCool.5 mph51%30.29 "HgN/A
7:00 PM58 °FRefreshingly cool.3 mph42%30.26 "HgN/A
6:00 PM58 °FOvercast.3 mph38%30.25 "Hg19 mi
5:00 PM61 °FRefreshingly cool.3 mph30%30.24 "HgN/A
4:00 PM62 °FMild.1 mph28%30.24 "HgN/A
3:00 PM63 °FOvercast.1 mph28%30.24 "Hg22 mi
2:00 PM63 °FMild.2 mph27%30.25 "HgN/A
1:00 PM62 °FRefreshingly cool.2 mph31%30.26 "HgN/A
11:00 AM57 °FRefreshingly cool.3 mph45%30.32 "HgN/A
10:00 AM54 °FCool.5 mph54%30.34 "HgN/A
9:00 AM49 °FPassing clouds.3 mph62%30.35 "Hg25 mi
8:00 AM46 °FCool.3 mph69%30.33 "HgN/A
7:00 AM44 °FQuite cool.3 mph74%30.32 "HgN/A
6:00 AM44 °FPassing clouds.3 mph76%30.31 "Hg19 mi
5:00 AM44 °FQuite cool.3 mph76%30.30 "HgN/A
4:00 AM45 °FQuite cool.2 mph74%30.31 "HgN/A
3:00 AM45 °FClear.3 mph75%30.30 "Hg16 mi
2:00 AM46 °FCool.2 mph73%30.31 "HgN/A
1:00 AM46 °FCool.3 mph73%30.30 "HgN/A
Weather by CustomWeather, © 2014

See weather overviewHow to use our weather pages